| time (UTC) | temp F | wind direction | speed MPH | gust MPH | rain 1hr in | rain 24hr in | rain mn in | humidity % | barometer mb |
| 20260506212006 | 56 | 225 | 2.0 | 5.0 | 0.00 | 0.00 | 0.00 | 86 | 1021.6 |
| 20260506211007 | 56 | 221 | 2.0 | 5.0 | 0.00 | 0.00 | 0.00 | 87 | 1021.6 |
| 20260506210005 | 55 | 221 | 2.0 | 6.0 | 0.00 | 0.00 | 0.00 | 88 | 1021.6 |
| 20260506205006 | 56 | 184 | 2.0 | 6.0 | 0.00 | 0.00 | 0.00 | 87 | 1021.6 |
| 20260506204006 | 55 | 191 | 2.0 | 7.0 | 0.00 | 0.00 | 0.00 | 88 | 1021.6 |
| 20260506203006 | 55 | 253 | 2.0 | 7.0 | 0.00 | 0.00 | 0.00 | 87 | 1021.5 |
| 20260506202006 | 55 | 240 | 1.0 | 7.0 | 0.00 | 0.00 | 0.00 | 88 | 1021.4 |
| 20260506201006 | 55 | 221 | 1.0 | 3.0 | 0.00 | 0.00 | 0.00 | 89 | 1021.4 |
| 20260506200006 | 54 | 211 | 2.0 | 7.0 | 0.00 | 0.00 | 0.00 | 89 | 1021.3 |
| 20260506195005 | 55 | 230 | 1.0 | 3.0 | 0.00 | 0.00 | 0.00 | 90 | 1021.3 |
| 20260506194006 | 54 | 218 | 1.0 | 5.0 | 0.00 | 0.00 | 0.00 | 91 | 1021.3 |
| 20260506193007 | 54 | 244 | 2.0 | 6.0 | 0.00 | 0.00 | 0.00 | 91 | 1021.2 |
| 20260506192006 | 54 | 233 | 2.0 | 6.0 | 0.00 | 0.00 | 0.00 | 90 | 1021.1 |
| 20260506191006 | 54 | 217 | 2.0 | 6.0 | 0.00 | 0.00 | 0.00 | 90 | 1021.1 |
| 20260506190006 | 54 | 208 | 1.0 | 3.0 | 0.00 | 0.00 | 0.00 | 90 | 1021.1 |
| 20260506185006 | 55 | 193 | 0.0 | 3.0 | 0.00 | 0.00 | 0.00 | 90 | 1021.0 |
| 20260506184006 | 55 | 204 | 1.0 | 3.0 | 0.00 | 0.00 | 0.00 | 90 | 1020.9 |
| 20260506183006 | 55 | 217 | 2.0 | 5.0 | 0.00 | 0.00 | 0.00 | 89 | 1020.8 |
| 20260506182006 | 55 | 219 | 1.0 | 6.0 | 0.00 | 0.00 | 0.00 | 89 | 1020.7 |
| 20260506181006 | 54 | 226 | 1.0 | 3.0 | 0.00 | 0.00 | 0.00 | 89 | 1020.8 |
| 20260506180006 | 54 | 180 | 1.0 | 3.0 | 0.00 | 0.00 | 0.00 | 89 | 1020.8 |
| 20260506175006 | 55 | 239 | 1.0 | 5.0 | 0.00 | 0.00 | 0.00 | 87 | 1020.8 |
| 20260506174005 | 55 | 312 | 0.0 | 3.0 | 0.00 | 0.00 | 0.00 | 88 | 1020.6 |
| 20260506173006 | 55 | 264 | 1.0 | 3.0 | 0.00 | 0.00 | 0.00 | 87 | 1020.5 |
| 20260506172006 | 55 | 222 | 2.0 | 3.0 | 0.00 | 0.00 | 0.00 | 86 | 1020.5 |
| 20260506171006 | 55 | 221 | 0.0 | 2.0 | 0.00 | 0.00 | 0.00 | 86 | 1020.4 |
| 20260506170005 | 55 | 234 | 1.0 | 3.0 | 0.00 | 0.00 | 0.00 | 86 | 1020.4 |
| 20260506165006 | 55 | 227 | 1.0 | 3.0 | 0.00 | 0.00 | 0.00 | 86 | 1020.4 |
| 20260506164006 | 55 | 231 | 2.0 | 5.0 | 0.00 | 0.00 | 0.00 | 85 | 1020.3 |
| 20260506162005 | 55 | 236 | 1.0 | 5.0 | 0.00 | 0.00 | 0.00 | 86 | 1020.2 |
| 20260506161006 | 55 | 231 | 2.0 | 5.0 | 0.00 | 0.00 | 0.00 | 86 | 1020.1 |
| 20260506155007 | 55 | 238 | 1.0 | 3.0 | 0.00 | 0.00 | 0.00 | 86 | 1019.8 |
| 20260506155005 | 55 | 239 | 1.0 | 5.0 | 0.00 | 0.00 | 0.00 | 86 | 1019.8 |
| 20260506153006 | 55 | 188 | 1.0 | 3.0 | 0.00 | 0.00 | 0.00 | 88 | 1019.4 |
| 20260506152005 | 54 | 236 | 0.0 | 3.0 | 0.00 | 0.00 | 0.00 | 89 | 1019.7 |
| 20260506151006 | 54 | 172 | 1.0 | 3.0 | 0.00 | 0.00 | 0.00 | 88 | 1019.7 |
| 20260506150005 | 54 | 206 | 0.0 | 3.0 | 0.00 | 0.00 | 0.00 | 89 | 1019.8 |
| 20260506145007 | 54 | 181 | 1.0 | 3.0 | 0.00 | 0.00 | 0.00 | 89 | 1019.6 |
| 20260506145005 | 54 | 186 | 1.0 | 3.0 | 0.00 | 0.00 | 0.00 | 89 | 1019.6 |
| 20260506144006 | 53 | 234 | 1.0 | 2.0 | 0.00 | 0.00 | 0.00 | 89 | 1019.4 |
| 20260506143006 | 53 | 166 | 1.0 | 2.0 | 0.00 | 0.00 | 0.00 | 90 | 1019.1 |
| 20260506142005 | 53 | 250 | 1.0 | 3.0 | 0.00 | 0.00 | 0.00 | 90 | 1019.2 |
| 20260506141005 | 53 | 276 | 0.0 | 3.0 | 0.00 | 0.00 | 0.00 | 90 | 1019.2 |
| 20260506140005 | 53 | 179 | 0.0 | 2.0 | 0.00 | 0.00 | 0.00 | 90 | 1019.0 |
| 20260506135005 | 53 | 238 | 0.0 | 1.0 | 0.00 | 0.00 | 0.00 | 90 | 1019.0 |
| 20260506134007 | 53 | 168 | 1.0 | 2.0 | 0.00 | 0.00 | 0.00 | 90 | 1019.0 |
| 20260506134005 | 53 | 168 | 0.0 | 2.0 | 0.00 | 0.00 | 0.00 | 90 | 1019.0 |
| 20260506133005 | 53 | 199 | 0.0 | 2.0 | 0.00 | 0.00 | 0.00 | 90 | 1019.0 |
| 20260506132005 | 53 | 253 | 0.0 | 3.0 | 0.00 | 0.00 | 0.00 | 90 | 1019.3 |
| 20260506131005 | 53 | 260 | 1.0 | 3.0 | 0.00 | 0.00 | 0.00 | 90 | 1019.1 |
| 20260506130006 | 53 | 206 | 1.0 | 2.0 | 0.00 | 0.00 | 0.00 | 91 | 1019.0 |
| 20260506125005 | 53 | 233 | 1.0 | 2.0 | 0.00 | 0.00 | 0.00 | 91 | 1019.0 |
| 20260506124005 | 53 | 247 | 0.0 | 3.0 | 0.00 | 0.00 | 0.00 | 90 | 1018.7 |
| 20260506123005 | 53 | 232 | 0.0 | 2.0 | 0.00 | 0.00 | 0.00 | 90 | 1018.8 |
| 20260506122005 | 53 | 222 | 0.0 | 3.0 | 0.00 | 0.00 | 0.00 | 90 | 1018.7 |
| 20260506121005 | 53 | 230 | 1.0 | 3.0 | 0.00 | 0.00 | 0.00 | 90 | 1018.6 |
| 20260506120005 | 53 | 242 | 1.0 | 3.0 | 0.00 | 0.00 | 0.00 | 90 | 1018.4 |
| 20260506115005 | 53 | 232 | 1.0 | 3.0 | 0.00 | 0.00 | 0.00 | 90 | 1018.4 |
| 20260506114005 | 53 | 260 | 0.0 | 3.0 | 0.00 | 0.00 | 0.00 | 89 | 1018.3 |
| 20260506113005 | 53 | 285 | 0.0 | 3.0 | 0.00 | 0.00 | 0.00 | 89 | 1018.3 |
| 20260506112005 | 53 | 263 | 0.0 | 2.0 | 0.00 | 0.00 | 0.00 | 90 | 1018.2 |
| 20260506111005 | 53 | 254 | 1.0 | 2.0 | 0.00 | 0.00 | 0.00 | 90 | 1018.2 |
| 20260506110005 | 53 | 240 | 1.0 | 3.0 | 0.00 | 0.00 | 0.00 | 90 | 1018.2 |
| 20260506105005 | 53 | 219 | 0.0 | 3.0 | 0.00 | 0.00 | 0.00 | 90 | 1018.1 |
| 20260506104005 | 53 | 243 | 1.0 | 3.0 | 0.00 | 0.00 | 0.00 | 90 | 1018.1 |
| 20260506103005 | 53 | 191 | 0.0 | 3.0 | 0.00 | 0.00 | 0.00 | 90 | 1018.1 |
| 20260506102005 | 53 | 226 | 1.0 | 5.0 | 0.00 | 0.00 | 0.00 | 90 | 1018.0 |
| 20260506101005 | 53 | 219 | 1.0 | 5.0 | 0.00 | 0.00 | 0.00 | 90 | 1018.0 |
| 20260506100005 | 53 | 231 | 0.0 | 2.0 | 0.00 | 0.00 | 0.00 | 89 | 1018.0 |
| 20260506095007 | 53 | 247 | 1.0 | 3.0 | 0.00 | 0.00 | 0.00 | 89 | 1017.9 |
| 20260506094005 | 53 | 252 | 1.0 | 3.0 | 0.00 | 0.00 | 0.00 | 89 | 1017.9 |
| 20260506093008 | 54 | 223 | 1.0 | 3.0 | 0.00 | 0.00 | 0.00 | 90 | 1017.8 |
| 20260506092005 | 54 | 233 | 1.0 | 3.0 | 0.00 | 0.00 | 0.00 | 89 | 1017.7 |
| 20260506091007 | 54 | 282 | 1.0 | 3.0 | 0.00 | 0.00 | 0.00 | 90 | 1017.7 |
| 20260506090005 | 54 | 211 | 1.0 | 3.0 | 0.00 | 0.00 | 0.00 | 90 | 1017.7 |
| 20260506085007 | 54 | 228 | 0.0 | 2.0 | 0.00 | 0.00 | 0.00 | 90 | 1017.7 |
| 20260506084007 | 54 | 253 | 1.0 | 2.0 | 0.00 | 0.00 | 0.00 | 90 | 1017.7 |
| 20260506083007 | 54 | 226 | 1.0 | 3.0 | 0.00 | 0.00 | 0.00 | 89 | 1017.7 |
| 20260506082006 | 54 | 163 | 0.0 | 2.0 | 0.00 | 0.00 | 0.00 | 89 | 1017.5 |
| 20260506081007 | 54 | 246 | 0.0 | 3.0 | 0.00 | 0.00 | 0.00 | 89 | 1017.5 |
| 20260506073005 | 54 | 237 | 1.0 | 3.0 | 0.00 | 0.00 | 0.00 | 90 | 1017.0 |
| 20260506072007 | 54 | 220 | 0.0 | 3.0 | 0.00 | 0.00 | 0.00 | 90 | 1017.1 |
| 20260506071007 | 54 | 214 | 1.0 | 3.0 | 0.00 | 0.00 | 0.00 | 90 | 1017.0 |
| 20260506062007 | 54 | 271 | 0.0 | 2.0 | 0.00 | 0.00 | 0.00 | 89 | 1017.0 |
| 20260506061007 | 54 | 225 | 0.0 | 3.0 | 0.00 | 0.00 | 0.00 | 89 | 1016.8 |
| 20260506051007 | 55 | 241 | 0.0 | 3.0 | 0.00 | 0.00 | 0.00 | 89 | 1016.6 |
| 20260506045006 | 55 | 195 | 0.0 | 3.0 | 0.00 | 0.00 | 0.00 | 90 | 1016.5 |
| 20260506044007 | 55 | 258 | 0.0 | 3.0 | 0.00 | 0.00 | 0.00 | 91 | 1016.6 |
| 20260506043007 | 55 | 213 | 1.0 | 2.0 | 0.00 | 0.00 | 0.00 | 90 | 1016.6 |
| 20260506042007 | 55 | 251 | 1.0 | 2.0 | 0.00 | 0.00 | 0.00 | 91 | 1016.5 |
| 20260506041007 | 55 | 208 | 0.0 | 3.0 | 0.00 | 0.00 | 0.00 | 91 | 1016.5 |
| 20260506040007 | 55 | 243 | 0.0 | 2.0 | 0.00 | 0.00 | 0.00 | 91 | 1016.4 |
| 20260506035006 | 55 | 281 | 0.0 | 2.0 | 0.00 | 0.00 | 0.00 | 91 | 1016.3 |
| 20260506034006 | 55 | 217 | 0.0 | 3.0 | 0.00 | 0.00 | 0.00 | 91 | 1015.9 |
| 20260506033008 | 55 | 247 | 1.0 | 3.0 | 0.00 | 0.00 | 0.00 | 91 | 1016.0 |
| 20260506032007 | 56 | 229 | 0.0 | 2.0 | 0.00 | 0.00 | 0.00 | 90 | 1015.8 |
| 20260506031006 | 56 | 211 | 1.0 | 3.0 | 0.00 | 0.00 | 0.00 | 91 | 1015.6 |
| 20260506030006 | 56 | 152 | 0.0 | 3.0 | 0.00 | 0.00 | 0.00 | 91 | 1015.7 |
| 20260506025007 | 56 | 242 | 0.0 | 3.0 | 0.00 | 0.00 | 0.00 | 90 | 1015.6 |
| 20260506024006 | 56 | 293 | 1.0 | 3.0 | 0.00 | 0.00 | 0.00 | 89 | 1015.6 |
| 20260506023006 | 56 | 285 | 0.0 | 3.0 | 0.00 | 0.00 | 0.00 | 89 | 1015.5 |
| 20260506022007 | 56 | 301 | 0.0 | 3.0 | 0.00 | 0.00 | 0.00 | 89 | 1015.5 |
| 20260506021008 | 56 | 261 | 1.0 | 3.0 | 0.00 | 0.00 | 0.00 | 89 | 1015.5 |
| 20260506021006 | 56 | 284 | 1.0 | 3.0 | 0.00 | 0.00 | 0.00 | 89 | 1015.5 |
| 20260506020006 | 56 | 250 | 2.0 | 5.0 | 0.00 | 0.00 | 0.00 | 89 | 1015.4 |
| 20260506015006 | 56 | 279 | 1.0 | 3.0 | 0.00 | 0.00 | 0.00 | 88 | 1015.5 |
| 20260506014006 | 56 | 283 | 2.0 | 3.0 | 0.00 | 0.00 | 0.00 | 88 | 1015.5 |
| 20260506013007 | 57 | 296 | 1.0 | 3.0 | 0.00 | 0.00 | 0.00 | 88 | 1015.6 |
| 20260506012006 | 57 | 224 | 1.0 | 3.0 | 0.00 | 0.00 | 0.00 | 87 | 1015.7 |
| 20260506011006 | 58 | 291 | 0.0 | 5.0 | 0.00 | 0.00 | 0.00 | 87 | 1015.7 |
| 20260506010007 | 58 | 292 | 0.0 | 3.0 | 0.00 | 0.00 | 0.00 | 86 | 1015.4 |
| 20260506005006 | 58 | 222 | 1.0 | 3.0 | 0.00 | 0.00 | 0.00 | 84 | 1015.4 |
| 20260506004006 | 58 | 232 | 1.0 | 3.0 | 0.00 | 0.00 | 0.00 | 85 | 1015.5 |
| 20260506003006 | 58 | 237 | 1.0 | 3.0 | 0.00 | 0.00 | 0.00 | 85 | 1015.5 |
| 20260506002006 | 58 | 219 | 1.0 | 3.0 | 0.00 | 0.00 | 0.00 | 84 | 1015.6 |
| 20260506001006 | 58 | 258 | 1.0 | 3.0 | 0.00 | 0.00 | 0.00 | 85 | 1015.7 |
| 20260506000007 | 58 | 237 | 1.0 | 3.0 | 0.00 | 0.00 | 0.00 | 86 | 1015.9 |
| 20260505235006 | 58 | 298 | 3.0 | 6.0 | 0.00 | 0.00 | 0.00 | 86 | 1016.0 |
| 20260505234009 | 59 | 285 | 1.0 | 3.0 | 0.00 | 0.00 | 0.00 | 85 | 1016.1 |
| 20260505234006 | 59 | 277 | 1.0 | 5.0 | 0.00 | 0.00 | 0.00 | 84 | 1016.1 |
| 20260505233007 | 59 | 294 | 1.0 | 5.0 | 0.00 | 0.00 | 0.00 | 84 | 1016.1 |
| 20260505232006 | 58 | 200 | 2.0 | 5.0 | 0.00 | 0.00 | 0.00 | 84 | 1016.1 |
| 20260505231006 | 59 | 237 | 2.0 | 3.0 | 0.00 | 0.00 | 0.00 | 83 | 1016.1 |
| 20260505230006 | 59 | 234 | 1.0 | 3.0 | 0.00 | 0.00 | 0.00 | 83 | 1016.2 |
| 20260505225006 | 59 | 275 | 1.0 | 5.0 | 0.00 | 0.00 | 0.00 | 83 | 1016.2 |
| 20260505224007 | 59 | 233 | 1.0 | 3.0 | 0.00 | 0.00 | 0.00 | 83 | 1016.2 |
| 20260505223006 | 60 | 230 | 0.0 | 3.0 | 0.00 | 0.00 | 0.00 | 82 | 1016.2 |
| 20260505222006 | 59 | 257 | 1.0 | 5.0 | 0.00 | 0.00 | 0.00 | 81 | 1016.3 |
| 20260505221006 | 59 | 197 | 2.0 | 6.0 | 0.00 | 0.00 | 0.00 | 81 | 1016.3 |
| 20260505215007 | 59 | 211 | 1.0 | 3.0 | 0.00 | 0.00 | 0.00 | 80 | 1016.3 |
| 20260505214006 | 59 | 194 | 2.0 | 6.0 | 0.00 | 0.00 | 0.00 | 81 | 1016.4 |
| 20260505213007 | 59 | 220 | 2.0 | 5.0 | 0.00 | 0.00 | 0.00 | 80 | 1016.5 |